GSAT0214 (GALILEO 18) (41862 NORAD) Tracking and Keplerian Element Data

This shows tracking and keplerian element data for the satellite.

Feedback or suggestion? Click here.




ElementValue
Catalog41862
NameGSAT0214 (GALILEO 18)
Epoch Orbit1293
Epoch Day350.17929043
Epoch Year2018
RAAN177.1092
Inclination54.5875
Eccentricity5.74E-05
Argument of Perigee288.2242
Mean Anonmoly71.8146
Mean Motion1.70473546
Decay Rate1E-06
L11 41862U 16069D 18350.17929043 .00000100 00000-0 00000+0 0 9995
L22 41862 54.5875 177.1092 0000574 288.2242 71.8146 1.70473546 12937

Live tracking and technical data element details for GSAT0214 (GALILEO 18) (NORAD 41862). GSAT0214 (GALILEO 18) can be tracked NOW for your location showing map with azimuth and elevation plus other details from your city location.

Track the satellite on the map from your city or location and see movement details for azimuth, elevation, latitude, longitude, range, height, and movement on the map or in text.







IsCatalogInMostPopularTable: catalog: 41862, numindb: 123
Update: records affected: 1



GetName: 41862 GSAT0214 (GALILEO 18)

Hit Count: updated at: Tue, 18 Dec 2018 21:23:32 GMT